TimeCDT,TemperatureF,Dew PointF,Humidity,Sea Level PressureIn,VisibilityMPH,Wind Direction,Wind SpeedMPH,Gust SpeedMPH,PrecipitationIn,Events,Conditions,WindDirDegrees,DateUTC
12:15 AM,68.0,46.4,46,30.18,10.0,NNE,6.9,-,N/A,,Clear,20,2012-10-29 05:15:00
12:35 AM,68.0,48.2,49,30.18,10.0,NNE,5.8,12.7,N/A,,Clear,20,2012-10-29 05:35:00
12:55 AM,68.0,48.2,49,30.17,10.0,NNE,9.2,-,N/A,,Clear,30,2012-10-29 05:55:00
1:15 AM,68.0,48.2,49,30.17,10.0,NNE,6.9,-,N/A,,Clear,20,2012-10-29 06:15:00
1:35 AM,68.0,46.4,46,30.17,10.0,NNE,5.8,-,N/A,,Clear,20,2012-10-29 06:35:00
1:55 AM,68.0,46.4,46,30.17,10.0,Variable,5.8,-,N/A,,Clear,0,2012-10-29 06:55:00
2:15 AM,68.0,46.4,46,30.17,10.0,Variable,5.8,-,N/A,,Clear,0,2012-10-29 07:15:00
2:35 AM,68.0,46.4,46,30.17,10.0,NNE,6.9,-,N/A,,Clear,20,2012-10-29 07:35:00
2:55 AM,69.8,46.4,43,30.16,10.0,Variable,6.9,-,N/A,,Clear,0,2012-10-29 07:55:00
3:15 AM,69.8,46.4,43,30.16,10.0,North,6.9,-,N/A,,Clear,10,2012-10-29 08:15:00
3:55 AM,69.8,46.4,43,30.16,10.0,NNE,6.9,13.8,N/A,,Partly Cloudy,20,2012-10-29 08:55:00
4:15 AM,69.8,46.4,43,30.15,10.0,NE,9.2,-,N/A,,Clear,40,2012-10-29 09:15:00
4:55 AM,69.8,46.4,43,30.15,10.0,North,5.8,-,N/A,,Overcast,10,2012-10-29 09:55:00
5:15 AM,69.8,46.4,43,30.16,10.0,NNE,8.1,-,N/A,,Overcast,30,2012-10-29 10:15:00
5:35 AM,69.8,46.4,43,30.16,10.0,Variable,5.8,-,N/A,,Mostly Cloudy,0,2012-10-29 10:35:00
5:55 AM,69.8,48.2,46,30.16,10.0,NNE,5.8,-,N/A,,Scattered Clouds,30,2012-10-29 10:55:00
6:15 AM,69.8,48.2,46,30.16,10.0,NNE,6.9,-,N/A,,Clear,30,2012-10-29 11:15:00
6:35 AM,69.8,48.2,46,30.17,10.0,Variable,4.6,12.7,N/A,,Scattered Clouds,0,2012-10-29 11:35:00
6:55 AM,69.8,48.2,46,30.17,10.0,NNE,6.9,-,N/A,,Mostly Cloudy,20,2012-10-29 11:55:00
7:15 AM,69.8,50.0,49,30.17,10.0,North,5.8,11.5,N/A,,Scattered Clouds,10,2012-10-29 12:15:00
7:35 AM,69.8,50.0,49,30.18,10.0,NNE,5.8,13.8,N/A,,Partly Cloudy,20,2012-10-29 12:35:00
7:55 AM,69.8,51.8,53,30.18,10.0,Variable,6.9,16.1,N/A,,Clear,0,2012-10-29 12:55:00
8:15 AM,69.8,51.8,53,30.19,10.0,North,6.9,13.8,N/A,,Partly Cloudy,10,2012-10-29 13:15:00
8:50 AM,69.8,50.0,49,30.20,10.0,NNE,13.8,-,N/A,,Clear,30,2012-10-29 13:50:00
9:15 AM,69.8,50.0,49,30.21,10.0,NE,12.7,-,N/A,,Clear,40,2012-10-29 14:15:00
9:35 AM,69.8,51.8,53,30.21,10.0,Variable,5.8,13.8,N/A,,Clear,0,2012-10-29 14:35:00
9:50 AM,71.6,51.8,50,30.22,10.0,NNE,8.1,13.8,N/A,,Clear,30,2012-10-29 14:50:00
10:15 AM,71.6,51.8,50,30.22,10.0,North,8.1,-,N/A,,Clear,10,2012-10-29 15:15:00
10:35 AM,71.6,50.0,46,30.22,10.0,NNE,8.1,15.0,N/A,,Clear,20,2012-10-29 15:35:00
11:15 AM,71.6,51.8,50,30.22,10.0,NNE,9.2,15.0,N/A,,Partly Cloudy,30,2012-10-29 16:15:00
11:35 AM,71.6,51.8,50,30.22,10.0,NNE,11.5,-,N/A,,Clear,30,2012-10-29 16:35:00
11:55 AM,71.6,51.8,50,30.22,10.0,NNE,5.8,15.0,N/A,,Partly Cloudy,20,2012-10-29 16:55:00
12:15 PM,71.6,53.6,53,30.21,10.0,NNE,5.8,-,N/A,,Scattered Clouds,20,2012-10-29 17:15:00
12:35 PM,71.6,51.8,50,30.20,10.0,NNE,9.2,-,N/A,,Partly Cloudy,30,2012-10-29 17:35:00
12:55 PM,71.6,53.6,53,30.20,10.0,NNE,5.8,13.8,N/A,,Partly Cloudy,20,2012-10-29 17:55:00
1:15 PM,71.6,53.6,53,30.19,10.0,NNE,6.9,15.0,N/A,,Scattered Clouds,20,2012-10-29 18:15:00
1:35 PM,71.6,53.6,53,30.18,10.0,Variable,4.6,11.5,N/A,,Scattered Clouds,0,2012-10-29 18:35:00
1:55 PM,71.6,53.6,53,30.18,10.0,Variable,4.6,13.8,N/A,,Partly Cloudy,0,2012-10-29 18:55:00
2:15 PM,71.6,53.6,53,30.17,10.0,NNE,10.4,-,N/A,,Partly Cloudy,30,2012-10-29 19:15:00
2:35 PM,71.6,53.6,53,30.16,10.0,NE,11.5,-,N/A,,Mostly Cloudy,40,2012-10-29 19:35:00
2:55 PM,71.6,55.4,57,30.16,10.0,Variable,6.9,16.1,N/A,,Scattered Clouds,0,2012-10-29 19:55:00
3:15 PM,69.8,53.6,56,30.15,10.0,NNE,9.2,-,N/A,,Scattered Clouds,30,2012-10-29 20:15:00
3:35 PM,69.8,53.6,56,30.14,10.0,NNE,11.5,18.4,N/A,,Scattered Clouds,30,2012-10-29 20:35:00
3:55 PM,69.8,53.6,56,30.14,10.0,NNE,9.2,-,N/A,,Scattered Clouds,30,2012-10-29 20:55:00
4:15 PM,69.8,53.6,56,30.13,10.0,NNE,8.1,16.1,N/A,,Scattered Clouds,20,2012-10-29 21:15:00
4:50 PM,69.8,53.6,56,30.13,10.0,NE,11.5,-,N/A,,Mostly Cloudy,40,2012-10-29 21:50:00
5:15 PM,69.8,53.6,56,30.12,10.0,NNE,11.5,-,N/A,,Partly Cloudy,30,2012-10-29 22:15:00
5:35 PM,69.8,53.6,56,30.13,10.0,NNE,8.1,-,N/A,,Clear,30,2012-10-29 22:35:00
5:55 PM,69.8,51.8,53,30.12,10.0,NNE,9.2,15.0,N/A,,Clear,30,2012-10-29 22:55:00
6:15 PM,69.8,51.8,53,30.13,10.0,NE,16.1,-,N/A,,Partly Cloudy,40,2012-10-29 23:15:00
6:35 PM,69.8,51.8,53,30.13,10.0,NNE,9.2,16.1,N/A,,Clear,30,2012-10-29 23:35:00
7:15 PM,69.8,51.8,53,30.13,10.0,NNE,8.1,-,N/A,,Clear,30,2012-10-30 00:15:00
7:35 PM,69.8,51.8,53,30.13,10.0,NE,11.5,-,N/A,,Clear,50,2012-10-30 00:35:00
7:55 PM,69.8,53.6,56,30.13,10.0,NE,10.4,-,N/A,,Partly Cloudy,50,2012-10-30 00:55:00
8:15 PM,69.8,51.8,53,30.14,10.0,NE,8.1,13.8,N/A,,Partly Cloudy,50,2012-10-30 01:15:00
8:35 PM,69.8,53.6,56,30.14,10.0,NE,8.1,-,N/A,,Clear,50,2012-10-30 01:35:00
8:55 PM,69.8,53.6,56,30.14,10.0,NE,8.1,-,N/A,,Partly Cloudy,50,2012-10-30 01:55:00
9:15 PM,69.8,53.6,56,30.14,10.0,ENE,10.4,-,N/A,,Clear,60,2012-10-30 02:15:00
9:35 PM,69.8,53.6,56,30.15,10.0,East,10.4,-,N/A,,Mostly Cloudy,80,2012-10-30 02:35:00
9:55 PM,69.8,53.6,56,30.15,10.0,ENE,8.1,-,N/A,,Mostly Cloudy,60,2012-10-30 02:55:00
10:15 PM,69.8,53.6,56,30.15,10.0,East,6.9,-,N/A,,Mostly Cloudy,90,2012-10-30 03:15:00
10:35 PM,69.8,53.6,56,30.15,10.0,ENE,8.1,-,N/A,,Mostly Cloudy,60,2012-10-30 03:35:00
10:55 PM,69.8,53.6,56,30.15,10.0,East,8.1,-,N/A,,Scattered Clouds,90,2012-10-30 03:55:00
11:15 PM,69.8,53.6,56,30.15,10.0,East,8.1,-,N/A,,Clear,90,2012-10-30 04:15:00
11:35 PM,69.8,53.6,56,30.15,10.0,East,8.1,-,N/A,,Partly Cloudy,100,2012-10-30 04:35:00
11:55 PM,69.8,53.6,56,30.15,10.0,Variable,6.9,-,N/A,,Clear,0,2012-10-30 04:55:00